Santa Fe, NM

9:18 PM MDT on September 30, 2016 (GMT -0600)
Santa Fe Municipal

Weather History for KSAF - December, 2012

Change the Weather History Date:

Sunday, December 30, 2012

  Actual Average Record
Temperature  
Mean Temperature 28 °F -  
Max Temperature 37 °F 48 °F 57 °F (1998)
Min Temperature 19 °F 11 °F 10 °F (2014)
Degree Days  
Heating Degree Days 37    
Moisture  
Dew Point 14 °F    
Average Humidity 53    
Maximum Humidity 79    
Minimum Humidity 37    
Precipitation  
Precipitation 0.00 in - - ()
Sea Level Pressure  
Sea Level Pressure 29.98 in    
Wind  
Wind Speed 4 mph (East)    
Max Wind Speed 10 mph    
Max Gust Speed -    
Visibility 10 miles    
Events      
Averages and records for this station are not official NWS values.
T = Trace of Precipitation, MM = Missing Value Source: NWS Daily Summary

Daily Weather History Graph

Daily Weather History Graph

Search for Another Location

Airport or City:

Trip Planner

Search our weather history database for the weather conditions in past years. The results will help you decide how hot, cold, wet, or windy it might be!

Date:

Astronomy

Dec. 30, 2012 Rise Set
Actual Time 7:13 AM MST 5:00 PM MST
Civil Twilight 6:45 AM MST 5:29 PM MST
Nautical Twilight 6:13 AM MST 6:01 PM MST
Astronomical Twilight 5:42 AM MST 6:32 PM MST
Moon 7:29 PM MST (12/30) 8:28 AM MST (12/30)
Length of Visible Light 10h 43m
Length of Day
9h 47m
Waning Gibbous, 95% of the Moon is Illuminated
Dec 30
Waning Gibbous
Jan 4
Last Quarter
Jan 11
New
Jan 18
First Quarter
Jan 26
Full

Hourly Weather History & Observations

Time (MST) Temp. Windchill Dew Point Humidity Pressure Visibility Wind Dir Wind Speed Gust Speed Precip Events Conditions
12:53 AM 23.0 °F - 8.1 °F 53% 30.13 in 10.0 mi Calm Calm - N/A   Clear
1:53 AM 21.9 °F - 9.0 °F 58% 30.12 in 10.0 mi Calm Calm - N/A   Scattered Clouds
2:53 AM 23.0 °F 15.8 °F 10.9 °F 60% 30.09 in 10.0 mi North 5.8 mph - N/A   Clear
3:53 AM 23.0 °F 18.4 °F 10.9 °F 60% 30.06 in 10.0 mi ENE 3.5 mph - N/A   Clear
4:53 AM 23.0 °F 18.4 °F 12.0 °F 63% 30.06 in 10.0 mi NNE 3.5 mph - N/A   Scattered Clouds
5:53 AM 19.9 °F 8.6 °F 8.1 °F 60% 30.09 in 10.0 mi North 10.4 mph - N/A   Partly Cloudy
6:53 AM 21.0 °F 11.4 °F 8.1 °F 57% 30.09 in 10.0 mi North 8.1 mph - N/A   Partly Cloudy
7:53 AM 21.0 °F 10.6 °F 8.1 °F 57% 30.08 in 10.0 mi North 9.2 mph - N/A   Scattered Clouds
8:53 AM 23.0 °F 13.1 °F 8.1 °F 53% 30.08 in 10.0 mi North 9.2 mph - N/A   Partly Cloudy
9:53 AM 26.1 °F 18.4 °F 9.0 °F 49% 30.06 in 10.0 mi North 6.9 mph - N/A   Mostly Cloudy
10:53 AM 28.9 °F 22.8 °F 10.0 °F 45% 30.05 in 10.0 mi North 5.8 mph - N/A   Mostly Cloudy
11:53 AM 30.9 °F - 10.9 °F 43% 30.02 in 10.0 mi Calm Calm - N/A   Overcast
12:53 PM 34.0 °F 31.0 °F 12.9 °F 42% 29.98 in 10.0 mi SE 3.5 mph - N/A   Overcast
1:53 PM 36.0 °F 33.3 °F 12.9 °F 39% 29.95 in 10.0 mi Variable 3.5 mph - N/A   Overcast
2:53 PM 37.0 °F 33.3 °F 12.9 °F 37% 29.92 in 10.0 mi South 4.6 mph - N/A   Overcast
3:53 PM 37.0 °F 34.5 °F 15.1 °F 41% 29.88 in 10.0 mi ESE 3.5 mph - N/A   Clear
4:53 PM 35.1 °F 29.3 °F 17.1 °F 48% 29.87 in 10.0 mi SE 6.9 mph - N/A   Scattered Clouds
5:53 PM 36.0 °F 29.6 °F 17.1 °F 46% 29.87 in 10.0 mi SE 8.1 mph - N/A   Clear
6:53 PM 35.1 °F 28.6 °F 19.0 °F 52% 29.89 in 10.0 mi SE 8.1 mph - N/A   Mostly Cloudy
7:53 PM 35.1 °F 27.4 °F 19.9 °F 54% 29.88 in 10.0 mi SE 10.4 mph - N/A   Overcast
8:53 PM 34.0 °F 26.6 °F 19.9 °F 56% 29.87 in 10.0 mi SE 9.2 mph - N/A   Overcast
9:53 PM 33.1 °F 27.7 °F 21.0 °F 61% 29.87 in 10.0 mi SSE 5.8 mph - N/A   Overcast
10:53 PM 34.0 °F 27.2 °F 25.0 °F 70% 29.82 in 10.0 mi SE 8.1 mph - N/A   Overcast
11:53 PM 32.0 °F 28.7 °F 26.1 °F 79% 29.81 in 10.0 mi South 3.5 mph - N/A   Scattered Clouds